Theta_e
339 338 339 342 342 342 342 341 342 341 341 342 341 339 340 340 340 340 338 337 339 340 341 341 340 341 342 340 337 339 339 340 341
339 338 338 341 338 341 341 341 341 343 342 343 340 339 338 338 339 339 339 339 338 336 339 339 340 340 341 341 340 339 340 338 337
338 338 338 337 338 340 340 339 339 341 341 339 338 338 337 338 338 338 338 337 339 338 337 337 334 338 339 339 340 339 338 338 337
337 336 338 339 338 340 340 338 338 339 337 337 337 337 337 336 336 336 336 336 336 337 338 337 336 335 335 336 337 337 338 338 338
337 334 337 339 339 340 338 336 337 336 335 334 332 333 334 333 333 333 332 333 333 333 331 332 333 334 335 335 333 334 335 335 336
337 332 334 338 337 338 336 335 334 331 329 331 330 330 330 330 329 329 330 330 329 328 328 327 327 327 327 329 330 331 331 331 332
334 332 331 337 336 337 335 334 329 325 327 328 328 327 327 327 328 328 328 328 327 327 327 326 326 326 325 325 324 324 324 326 328
333 332 330 336 334 336 332 327 324 324 326 326 325 325 325 326 327 327 327 327 326 326 325 325 324 324 323 322 322 322 323 322 322
332 331 327 333 330 333 327 323 321 322 323 323 324 325 325 326 325 326 326 326 325 325 324 323 322 321 321 321 320 320 320 320 320
331 330 325 330 329 327 324 322 320 321 322 323 324 324 324 324 325 325 325 324 324 324 323 322 321 321 320 319 319 318 318 318 318
329 327 324 329 327 325 324 321 319 321 321 323 323 324 324 323 323 323 323 323 323 323 322 321 320 320 319 318 317 317 317 316 316
327 321 323 327 324 322 323 321 319 320 322 322 322 323 323 322 323 322 321 321 321 321 321 320 320 319 318 317 317 316 316 316 315
326 315 323 323 321 322 322 322 320 320 321 321 322 321 321 321 321 320 320 319 319 319 320 320 319 318 318 316 315 315 315 315 314
326 315 322 320 320 321 323 322 320 320 321 321 321 321 320 320 319 318 317 318 318 318 318 318 318 318 317 316 315 314 313 313 313
327 318 321 318 319 319 323 322 320 320 320 320 319 319 319 318 317 316 315 315 316 316 314 315 316 316 316 315 314 313 312 311 311
325 318 318 316 318 316 322 321 319 319 319 318 316 316 316 316 314 311 311 311 309 310 312 311 312 311 309 310 311 312 311 310 310
325 314 315 314 315 316 320 321 318 317 317 315 313 309 312 314 313 312 311 310 308 308 307 308 309 309 306 306 305 305 308 309 308
325 319 314 313 314 315 320 321 318 316 316 315 310 305 308 308 311 313 312 311 310 308 309 308 308 308 307 306 305 305 304 305 306
327 325 320 312 314 313 318 319 317 317 314 312 310 310 309 308 308 308 310 311 311 310 309 309 309 308 308 307 305 305 304 304 303
327 326 319 310 311 312 312 314 314 315 315 311 309 309 309 309 308 308 307 308 309 309 309 309 309 308 308 307 306 304 304 303 303
Wind_Speed
16 16 16 17 18 19 20 21 22 21 21 23 23 23 25 26 28 29 28 27 24 25 28 30 30 30 31 32 33 35 34 33 35
16 16 17 16 16 17 20 20 21 22 22 23 24 26 28 30 30 29 29 28 27 25 26 28 29 29 30 32 33 32 34 35 36
15 16 17 16 16 17 20 19 19 21 22 23 26 27 28 29 30 29 29 26 27 28 27 27 26 27 29 30 33 33 32 35 36
15 15 16 17 15 17 21 19 20 22 23 23 25 25 27 29 29 28 26 24 24 25 28 28 28 27 27 28 30 31 32 33 34
17 16 16 17 16 21 21 19 19 21 21 21 21 22 23 25 25 25 22 21 22 24 24 24 25 27 28 28 29 29 29 31 32
18 17 18 18 18 19 20 17 17 18 18 19 20 20 22 23 24 22 22 22 23 23 24 25 26 26 27 27 28 29 30 29 30
19 18 19 19 19 18 19 17 17 17 20 24 22 21 22 26 26 24 23 23 24 25 25 25 26 27 28 28 28 28 29 29 29
21 20 20 21 21 22 20 16 15 19 23 23 23 25 26 27 25 24 24 23 23 24 24 25 25 26 27 28 27 28 28 29 29
23 22 23 24 22 22 18 18 19 21 22 23 26 26 26 25 25 23 23 22 22 23 23 24 25 25 26 26 27 26 27 27 28
23 22 24 27 24 22 22 21 22 23 24 25 26 26 25 24 23 23 22 22 22 21 22 23 23 24 24 25 25 25 25 26 27
24 23 25 28 25 25 23 22 23 24 24 25 24 24 23 23 22 22 21 21 20 20 20 21 21 22 22 23 23 24 24 24 25
25 25 29 31 27 24 25 24 24 24 24 24 22 21 21 21 20 20 20 20 19 18 18 19 19 19 20 20 21 22 22 22 23
24 27 32 29 25 23 28 28 26 25 24 23 21 20 19 18 18 17 17 17 17 16 16 16 16 16 17 18 18 19 20 20 21
25 29 32 26 25 25 30 30 28 26 24 22 20 19 17 16 15 15 14 14 14 14 13 13 13 13 14 15 16 16 17 18 18
26 31 29 25 25 28 32 32 29 28 26 23 20 17 16 14 13 12 12 11 10 10 10 11 11 10 10 12 12 13 14 14 15
27 32 29 24 24 28 33 32 29 26 24 23 15 11 10 11 11 11 10 9 8 8 8 8 8 7 7 6 8 9 10 11 12
25 30 28 25 25 27 33 34 29 25 26 11 10 2 3 9 11 11 10 9 9 8 8 7 7 5 3 2 2 4 7 9 9
28 28 28 28 28 29 33 35 32 27 25 20 6 3 4 4 10 15 13 12 12 10 10 9 9 8 6 3 1 2 4 5 7
31 27 26 28 29 30 32 32 31 32 29 19 5 5 8 3 1 7 15 15 14 13 13 13 12 11 10 8 5 3 3 3 4
24 24 26 26 27 31 31 32 30 31 33 26 13 10 10 7 3 2 3 9 11 13 15 16 15 14 14 12 9 5 5 5 5
Wind_Direction
132 129 130 121 114 111 108 102 99 101 101 97 98 101 100 95 91 89 84 80 77 73 68 68 67 65 66 66 63 61 59 58 59
136 133 130 126 119 115 113 109 102 98 98 98 101 103 102 96 92 88 84 82 80 77 72 69 66 65 65 65 66 63 60 60 59
140 137 133 132 130 126 116 112 109 104 104 103 107 106 103 98 93 89 85 82 78 78 77 74 75 66 64 64 64 63 62 60 60
143 140 136 132 131 134 122 119 119 112 109 108 110 107 105 100 97 90 85 82 79 77 74 74 74 71 67 64 64 63 63 62 60
143 140 141 131 129 131 119 121 117 117 117 118 116 111 105 99 95 90 90 88 83 78 74 75 74 71 69 69 67 64 61 60 60
150 145 144 138 128 126 124 125 120 116 121 127 124 118 113 104 96 95 94 91 89 86 81 78 76 75 71 68 68 68 66 63 60
155 147 146 144 133 133 127 127 133 131 129 125 125 119 114 106 101 98 95 93 91 90 86 82 78 77 75 72 69 68 67 66 63
158 152 150 149 141 139 144 139 132 128 133 130 123 119 113 109 104 102 99 96 93 91 88 85 81 77 75 73 70 67 66 66 64
164 162 158 158 157 153 148 138 131 131 130 130 125 120 117 113 109 106 102 99 96 93 90 87 83 79 76 74 70 66 65 65 65
170 167 164 162 161 160 150 142 135 134 131 129 127 123 120 116 112 109 106 103 99 95 91 88 84 80 76 74 72 68 64 62 62
175 170 167 157 161 159 155 149 142 139 136 132 130 127 125 121 117 113 108 105 101 98 95 91 86 81 76 72 70 69 64 62 60
177 173 168 163 163 162 162 156 148 144 141 136 135 133 130 126 122 120 117 112 105 102 97 93 88 83 77 73 69 68 66 61 61
178 174 168 165 167 171 170 161 154 150 148 142 140 139 138 134 131 128 124 118 113 105 101 97 92 86 81 75 70 66 64 61 56
184 177 171 169 168 169 170 166 160 155 150 146 144 143 143 141 138 134 130 129 126 123 117 106 96 88 81 74 69 65 63 61 57
186 179 178 175 172 174 173 170 166 160 154 150 148 151 153 153 153 148 146 146 142 138 132 125 116 100 90 80 71 65 62 59 57
188 183 184 182 181 177 179 171 167 159 161 142 138 148 165 172 173 170 168 168 168 165 163 161 158 142 125 104 84 74 63 55 52
195 188 186 190 183 179 179 174 164 164 165 151 128 109 210 211 203 195 191 194 198 194 192 196 201 206 185 135 76 57 58 55 55
188 192 193 192 190 183 180 180 174 169 177 162 145 121 205 177 219 220 213 213 218 218 217 221 221 225 230 235 285 15 21 30 42
194 196 206 197 193 188 185 186 186 181 182 181 196 177 146 161 186 229 223 223 229 234 239 239 240 236 237 240 245 272 305 342 3
192 208 207 203 201 198 191 191 193 193 186 181 155 134 119 117 129 182 191 215 236 246 251 248 245 247 247 246 250 268 290 309 315